« Back
NWS Peachtree City, Ga » Text Product » GA Regional Weather Roundup


Printer-friendly Version
Current Version              Previous Versions:   1  2  3  4  5  6  7  8  9  

Regional Weather Roundup

716
ASUS42 KFFC 262103
RWRGA
WEATHER ROUNDUP FOR GEORGIA
NATIONAL WEATHER SERVICE PEACHTREE CITY GA
400 PM EST WED NOV 26 2014

NOTE: "FAIR" INDICATES FEW OR NO CLOUDS BELOW 12,000 FEET WITH NO
SIGNIFICANT WEATHER AND/OR OBSTRUCTIONS TO VISIBILITY.

* = USE WITH CAUTION. THE STATIONS MARKED WITH AN ASTERISK MAY NOT
REPORT WEATHER SUCH AS PRECIPITATION, FOG, OR THUNDER AND ARE NOT
QUALITY CONTROLLED BY NWS.

THE REMARK "TC" DENOTES TEMPERATURE READING IN DEGREES CELSIUS.

GAZ001>058-262200-
NORTH GEORGIA

CITY           SKY/WX    TMP DP  RH WIND       PRES   REMARKS
ATLANTA        MOSUNNY   55  18  23 NW13      30.06F
ATHENS         SUNNY     56  20  24 W10G17    30.04R
CHAMBLEE       SUNNY     53  19  26 W14G20    30.06S
PEACHTREE CITY SUNNY     57  21  24 NW9       30.08F
ROME           SUNNY     55  24  30 W9        30.06S
WEST ATLANTA   SUNNY     55  19  24 NW10      30.07F
GAINESVILLE    SUNNY     52  19  27 W14G23    30.05R
CARTERSVILLE   SUNNY     54  23  30 CALM      30.08S


CITY           SKY/WX    TMP DP  RH WIND       PRES   REMARKS
DALTON*        PTSUNNY   52  23  32 CALM      30.06R
LAWRENCEVILLE* SUNNY     54  19  26 W10G18    30.05R
MARIETTA       MOSUNNY   54  20  26 W10       30.06S
$$

GAZ059>098-102>109-262200-
CENTRAL GEORGIA

CITY           SKY/WX    TMP DP  RH WIND       PRES   REMARKS
AUGUSTA-BUSH   MOSUNNY   60  35  39 W8        30.03R
AUGUSTA-DANIEL SUNNY     60  34  37 W8        30.04R
COLUMBUS       SUNNY     59  23  25 W8        30.10F
MACON          SUNNY     58  22  24 NW10      30.09S
ROBINS AFB     SUNNY     59  22  23 NW12      30.08F


CITY           SKY/WX    TMP DP  RH WIND       PRES   REMARKS
LAGRANGE*      SUNNY     61  29  29 W10       30.10S
SYLVANIA*      SUNNY     60  43  52 W10       30.07R
MILLEDGEVILLE* SUNNY     59  30  33 W9        30.07R
$$

GAZ099>101-110>166-262200-
SOUTH GEORGIA

CITY           SKY/WX    TMP DP  RH WIND       PRES   REMARKS
SAVANNAH       MOSUNNY   62  42  47 W12       30.07R
VALDOSTA       SUNNY     59  31  34 VRB6      30.14R
ALMA           SUNNY     60  32  34 W10G21    30.10R
ST SIMONS      SUNNY     61  40  45 W12       30.09R
FT STEWART     SUNNY     61  40  45 W8        30.07R
ALBANY         SUNNY     60  25  26 NW13G22   30.16R
HUNTER AFB     SUNNY     61  44  54 W14G20    30.05R
MOODY AFB      SUNNY     60  29  30 NW12      30.13R
BRUNSWICK      SUNNY     61  39  44 W13       30.10R


CITY           SKY/WX    TMP DP  RH WIND       PRES   REMARKS
BAINBRIDGE*    SUNNY     63  32  31 W12       30.15F
MOULTRIE*      SUNNY     59  32  36 W8        30.15S
VIDALIA*       SUNNY     61  36  39 W6        30.08S
WAYCROSS*      SUNNY     64  37  37 NW8       30.11R
DOUGLAS*       SUNNY     61  30  31 NW8       30.12S
$$



USA.gov is the U.S. government's official web portal to all federal, state and local government web resources and services.